Regional Weather Roundup
Issued by NWS Grand Forks, ND

Home | Current Version | Previous Version | Graphics & Text | Print | Product List | Glossary On
Versions: 1 2 3 4 5 6 7 8 9 10 11 12 13 14 15 16 17 18 19 20 21 22 23 24 25 26 27 28 29 30 31 32 33 34 35 36 37 38 39 40 41 42 43 44 45 46 47 48 49 50
000
ASUS43 KFGF 291510
RWRFGF
PRAIRIE TO PINES  WEATHER ROUNDUP
NATIONAL WEATHER SERVICE EASTERN NORTH DAKOTA/GRAND FORKS ND
1000 AM CDT FRI JUL 29 2016

 **SATELLITE DATA USED TO AUGMENT SKY COVER AT AUTOMATED STATIONS**
 *****  WEATHER ACROSS EASTERN NORTH DAKOTA  *****

CITY           SKY/WX    TMP DP  RH WIND       PRES   REMARKS
GRAND FORKS    MOSUNNY   70  57  63 NW5       30.09S
GRAND FRKS AFB SUNNY     69  57  64 N3        30.10S
DEVILS LAKE    CLOUDY    69  58  67 CALM      30.12S
FARGO          SUNNY     72  59  63 CALM      30.08S
WAHPETON ARPT  MOSUNNY   68  61  77 CALM      30.09S
$$

 ***** WEATHER ACROSS CENTRAL AND WESTERN NORTH DAKOTA  *****

CITY           SKY/WX    TMP DP  RH WIND       PRES   REMARKS
BISMARCK       SUNNY     73  62  68 VRB3      30.09F
MINOT          MOSUNNY   71  59  65 S7        30.09F
JAMESTOWN      CLOUDY    67  59  75 SE5       30.10S
MINOT AFB      MOSUNNY   70  59  69 VRB6      30.08F
GARRISON         N/A     68  63  84 S3        30.09F
WILLISTON      SUNNY     68  59  73 VRB6      30.09F
DICKINSON      PTSUNNY   66  60  81 SE6       30.10F
HETTINGER      SUNNY     70  56  61 E9        30.13S
$$

 *****  OTHER AIRPORT OBSERVATIONS IN OUR AREA  *****

CITY           SKY/WX    TMP DP  RH WIND       PRES   REMARKS
WALHALLA       NOT AVBL
GRAFTON AIRPOR FAIR      70  57  64 NW5       30.11S
VALLEY CITY AR FAIR      68  57  68 NE5       30.12S
CANDO          NOT AVBL
CAVALIER APRT  FAIR      68  57  68 CALM      30.10S
GWINNER        PTSUNNY   70  59  68 NE5       30.10S
SHEYENNE NWR     N/A     73  57  57 NE5       29.95S
ROLLA          FAIR      66  57  72 CALM      30.12F
 ***** THE ABOVE OBSERVATIONS ARE NON NWS ARE NOT QUALITY
       CONTROLLED AND MAY MIS-REPORT RAIN FOR SNOW...
$$

  *****  WEATHER ACROSS NORTHERN MINNESOTA  *****

CITY           SKY/WX    TMP DP  RH WIND       PRES   REMARKS
FLAG ISLAND    SUNNY     70  57  64 N3        30.08S
WARROAD        NOT AVBL
ROSEAU         SUNNY     70  63  78 CALM      30.09S
HALLOCK        SUNNY     68  61  77 NW6       30.09S
THF RVR FALLS  SUNNY     71  57  61 CALM      30.10S
BAUDETTE       SUNNY     71  59  65 E3        30.08F
WASKISH        SUNNY     72  61  68 E3        30.08F
CROOKSTON      SUNNY     66  59  77 CALM      30.10S
STEPHEN NDAWN    N/A    N/A N/A N/A N2          N/A
GREENBUSH NDAW   N/A     72  57  60 CALM        N/A
$$
  *****  WEATHER ACROSS CENTRAL AND WEST MINNESOTA  *****

CITY           SKY/WX    TMP DP  RH WIND       PRES   REMARKS
FOSSTON        SUNNY     70  57  64 CALM      30.10S
BEMIDJI        SUNNY     70  59  68 CALM      30.09F
PARK RAPIDS    MOSUNNY   70  59  68 S7        30.10S
ELBOW LAKE     FAIR      71  61  71 SE5       30.10F
WADENA         SUNNY     70  55  60 CALM      30.10
DETROIT LAKES  MOSUNNY   70  63  78 CALM      30.11S
MOORHEAD       SUNNY     70  61  73 CALM      30.09S
FERGUS FALLS   PTSUNNY  N/A N/A N/A SE5       30.10S
MORRIS MN      SUNNY     73  59  60 SE3       30.09S
STAPLES        PTSUNNY   70  52  52 SE3       30.10F
$$
  *****  WEATHER ELSEWHERE ACROSS MINNESOTA  *****

CITY           SKY/WX    TMP DP  RH WIND       PRES   REMARKS
DULUTH         SUNNY     68  52  56 SE12      30.12S
INTRNTL FALLS  SUNNY     69  57  65 SE6       30.09F
ELY            SUNNY     70  50  49 CALM      30.12F
CLOQUET        SUNNY     66  50  55 E9        30.11F
WHEATON        NOT AVBL
BRAINERD       SUNNY     70  54  56 CALM      30.11S
HIBBING        MOSUNNY   68  53  58 SE7       30.12S
ALEXANDRIA     SUNNY     70  56  61 E6        30.12S
SAINT CLOUD    SUNNY     68  57  68 VRB5      30.10S
MINNEAPOLIS    MOSUNNY   69  55  60 VRB7      30.08R
$$

  *****  WEATHER ACROSS SOUTH DAKOTA  *****

CITY           SKY/WX    TMP DP  RH WIND       PRES   REMARKS
SIOUX FALLS    MOSUNNY   71  58  63 NE7       30.10S
BROOKINGS      SUNNY     70  56  61 NE6       30.11R
WATERTOWN      SUNNY     74  56  53 E6        30.11R
HURON          MOSUNNY   71  57  61 CALM      30.10S
SISSETON         N/A     70  63  78 VRB3      30.09R
ABERDEEN       SUNNY     73  59  61 S3        30.10R
MITCHELL       SUNNY     72  59  63 E5        30.11S
PIERRE         CLOUDY    70  60  70 SW5       30.08S
MOBRIDGE       CLOUDY    73  61  65 VRB6      30.07R
RAPID CITY     MOSUNNY   67  58  72 S6        30.12S
$$

  *****  SOME WEATHER IN NEARBY STATES *****

CITY           SKY/WX    TMP DP  RH WIND       PRES   REMARKS
GLASGOW MT     MOSUNNY   68  60  75 SE9       30.06S
GREAT FALLS MT SUNNY     67  54  63 VRB3      30.13S
CHEYENNE WY    SUNNY     67  53  61 SW12      30.24S
SCOTTSBLUFF NE SUNNY     69  60  73 E3        30.15F
OMAHA NE       CLOUDY    72  60  66 N5        30.07F
DES MOINES IA  CLOUDY    70  62  76 N5        30.02S
DAVENPORT IA   CLOUDY    70  68  93 N3        29.96S FOG
CHICAGO IL     CLOUDY    78  69  73 E5        29.92F
EAU CLAIRE WI  SUNNY     69  55  60 NE5       30.06S
LA CROSSE WI   CLOUDY    67  59  75 VRB6      30.02F
$$

  *****  SOME NATIONAL WEATHER *****

CITY           SKY/WX    TMP DP  RH WIND       PRES   REMARKS
LA GUARDIA NY  CLOUDY    74  67  78 NE10      29.85R
RALEIGH NC     MOSUNNY   85  69  58 NW8       29.93R
ATLANTA GA     MOSUNNY   84  70  62 W13       30.05S
NEW ORLEANS LA PTSUNNY   87  75  67 CALM      30.05R HX  96
OKLAHOMA CITY  RAIN      69  66  90 N5        30.08S FOG
ALBUQUERQUE NM MOSUNNY   79  52  38 W5        30.20R
SALT LAKE CITY MOSUNNY   85  40  20 S9        30.06R
LOS ANGELES CA MOSUNNY   72  66  81 SW5       29.85R
BOISE ID       SUNNY     77  42  28 CALM      30.00R HAZE
SEATTLE WA     SUNNY     68  60  75 W5        30.03S
$$

*** WEATHER ACROSS MANITOBA...SASKATCHEWAN AND ONTARIO ***
                ***ONTARIO***

CITY           SKY/WX    TMP DP  RH WIND       PRES   REMARKS
GERALDTON      MOSUNNY   70  50  49 VRB5      30.11F
THUNDER BAY    MOSUNNY   70  55  60 VRB2      30.11F
SIOUX LOOKOUT  MOSUNNY   70  54  56 VRB2      30.10F
TORONTO        PTSUNNY   73  55  53 NE6       29.99R
BIG TROUT LK   CLOUDY    66  55  68 W7        30.02F
PICKLE LAKE    MOSUNNY   75  50  41 W8        30.07F
DRYDEN         SUNNY     72  48  43 VRB2      30.11S
KENORA         MOSUNNY   72  52  49 E3        30.10F
$$
                *** MANITOBA***

CITY           SKY/WX    TMP DP  RH WIND       PRES   REMARKS
BRANDON        PTSUNNY   70  57  64 W9        30.09S
DAUPHIN        SUNNY     73  61  64 W8        30.04S
ISLAND LAKE    MOSUNNY   73  61  64 VRB3      30.00F
PILOT MOUND      N/A     68  57  68 W3          N/A
THE PAS        LGT RAIN  68  63  83 NW10      29.97S
THOMPSON       CLOUDY    59  57  94 E6        29.99F FOG
WINNIPEG       MOSUNNY   70  57  64 SW8       30.08F
LYNN LAKE      CLOUDY    63  61  94 MISG      29.94F
CHURCHILL      MOSUNNY   61  45  55 NW3       30.07F
GILLAM         MOSUNNY   59  48  67 E8        30.05F
$$
                ***SASKATCHEWAN***

CITY           SKY/WX    TMP DP  RH WIND       PRES   REMARKS
ESTEVAN        MOSUNNY   68  57  68 VRB2      30.08F
KINDERSLEY     MOSUNNY   66  61  82 SW6       30.02S
LLOYDMINSTER   MOSUNNY   66  57  72 W7        30.01S
PRINCE ALBERT  PTSUNNY   66  63  88 CALM      29.96F
REGINA         PTSUNNY   64  55  72 S8        30.06S
YORKTON        SUNNY     68  55  64 SW9       30.04F
N. BATTLEFORD  NOT AVBL
LA RONGE       PTSUNNY   66  63  88 SW7       29.93F
SASKATOON      CLOUDY    66  63  88 W10       30.02S
SWIFT CURRENT  CLOUDY    61  59  94 S5        30.05S
$$
NOTE: THESE ARE AUTOMATED STATIONS WITH LIMITED QUALITY CONTROL
      "FAIR" INDICATES FEW OR NO CLOUDS BELOW 12,000 FEET WITH NO
      SIGNIFICANT WEATHER AND/OR OBSTRUCTIONS TO VISIBILITY.
      SKY/WX - SKY CONDITION AND SIGNIFICANT WEATHER.
      TMP - AIR TEMPERATURE.    DP   - DEWPOINT TEMPERATURE.
      RH  - RELATIVE HUMIDITY.  PRES - PRESSURE.
      HX  - HEAT INDEX.         WCI  - WIND CHILL INDEX.
$



USA.gov is the U.S. government's official web portal to all federal, state and local government web resources and services.